Hourly Data Report for July 05, 2017

All times are specified in Local Standard Time (LST). Add 1 hour to adjust for Daylight Saving Time where and when it is observed.

LUTSELK'E CS
NORTHWEST TERRITORIES

62°24'56.030" N
110°41'25.070" W
178.90 m
220L002
71529
XLU

Download Data

Hourly Data (July 2017)
Hourly Data Report for July 5, 2017
Temp Definition
°C
Dew Point Temp Definition
°C
Rel Hum Definition
%
Wind Dir Definition
10's deg

Wind Spd Definition
km/h
Visibility Definition
km
Stn Press Definition
kPa
Hmdx Definition


Wind Chill Definition


Weather Definition


TIME
00:00 12.3 10.4 88 LegendMM LegendMM   98.09     LegendNANA
01:00 15.2 12.3 83 LegendMM LegendMM   98.13     LegendNANA
02:00 15.1 12.4 84 LegendMM LegendMM   98.24     LegendNANA
03:00 14.3 10.8 80 LegendMM LegendMM   98.30     LegendNANA
04:00 14.5 9.1 70 LegendMM LegendMM   98.40     LegendNANA
05:00 14.5 8.7 68 LegendMM LegendMM   98.51     LegendNANA
06:00 15.2 8.4 64 LegendMM LegendMM   98.59     LegendNANA
07:00 15.4 8.6 64 LegendMM LegendMM   98.70     LegendNANA
08:00 16.1 8.8 62 LegendMM LegendMM   98.79     LegendNANA
09:00 16.7 8.4 58 LegendMM LegendMM   98.86     LegendNANA
10:00 17.8 9.0 56 LegendMM LegendMM   98.94     LegendNANA
11:00 18.5 8.8 53 LegendMM LegendMM   99.00     LegendNANA
12:00 19.3 8.5 49 LegendMM LegendMM   99.06     LegendNANA
13:00 20.4 7.3 43 LegendMM LegendMM   99.12     LegendNANA
14:00 21.4 6.5 38 LegendMM LegendMM   99.17     LegendNANA
15:00 22.0 5.9 35 LegendMM LegendMM   99.21     LegendNANA
16:00 22.4 5.2 33 LegendMM LegendMM   99.26     LegendNANA
17:00 22.1 4.8 32 LegendMM LegendMM   99.30     LegendNANA
18:00 21.9 4.8 33 LegendMM LegendMM   99.32     LegendNANA
19:00 21.5 4.6 33 LegendMM LegendMM   99.34     LegendNANA
20:00 18.4 7.8 50 LegendMM LegendMM   99.38     LegendNANA
21:00 16.8 7.3 53 LegendMM LegendMM   99.42     LegendNANA
22:00 13.7 7.5 66 LegendMM LegendMM   99.47     LegendNANA
23:00 10.0 5.7 75 LegendMM LegendMM   99.50     LegendNANA

Notes on Data Quality.

Legend

  • E = Estimated
  • M = Missing
  • NA = Not Available
  • ‡ = Partner data that is not subject to review by the National Climate Archives
Date modified: